Skip Page Navigation
NASA JPL Caltech
NASA Logo - Jet Propulsion Laboratory + View the NASA Portal
+ Center for Near-Earth Object Studies
JPL Home Earth Solar System Stars & Galaxies Technology
JPL Solar System Dynamics
BODIES ORBITS EPHEMERIDES TOOLS PHYSICAL DATA DISCOVERY FAQ SITE MAP
IMPORTANT: The SSD Announcement email list is now available. Major changes are coming in the near future, including possible hostname and/or URL changes. To be notified of such changes, subscribe to this email list.

Please visit this page for more details.


JPL Small-Body Database Browser
Search: [ help ]  
11448 Miahajdukova (1979 MB6)
Classification: Main-belt Asteroid          SPK-ID: 2011448
Ephemeris | Orbit Diagram | Orbital Elements | Mission Design | Physical Parameters | Discovery Circumstances ]

[ hide orbit diagram ]

For accurate long-term ephemerides, please instead use our Horizons system.This orbit viewer was implemented using two-body methods, and hence should not be used for determining accurate long-term trajectories (over several years or decades) or planetary encounter circumstances.


[ revert to old Java-based viewer ]

Orbital Elements at Epoch 2459000.5 (2020-May-31.0) TDB
Reference: JPL 24 (heliocentric ecliptic J2000)
 Element Value Uncertainty (1-sigma)   Units 
e .1943546488014133 3.406e-08  
a 2.231608220636079 6.9012e-09 au
q 1.797884788652007 7.7443e-08 au
i 3.520875485268185 3.5713e-06 deg
node 150.0923952011671 5.9731e-05 deg
peri 210.8914790088593 6.034e-05 deg
M 49.31760229609236 8.5944e-06 deg
tp 2458833.688952700420
(2019-Dec-16.18895270)
2.8978e-05 TDB
period 1217.658082144985
3.33
5.6484e-06
1.546e-08
d
yr
n .2956494974072166 1.3714e-09 deg/d
Q 2.665331652620151 8.2425e-09 au
  Orbit Determination Parameters
   # obs. used (total)      1294  
   data-arc span      15241 days (41.73 yr)  
   first obs. used      1978-03-15  
   last obs. used      2019-12-06  
   planetary ephem.      DE431  
   SB-pert. ephem.      SB431-N16  
   condition code      0  
   norm. resid. RMS      .55222  
   source      ORB  
   producer      Otto Matic  
   solution date      2019-Dec-13 23:16:07  

Additional Information
 Earth MOID = .795707 au 
 Jupiter MOID = 2.7863 au 
 T_jup = 3.614 
[ show covariance matrix ]

Ephemeris | Orbit Diagram | Orbital Elements | Mission Design | Physical Parameters | Discovery Circumstances ]

Physical Parameter Table
Parameter Symbol Value Units Sigma Reference Notes
absolute magnitude H 15.3   n/a MPO502257  

11448 Miahajduková           Discovered 1979 June 25 by E. F. Helin and S. J. Bus at Siding Spring.
Mária (Mia) Hajduková, Jr. (b. 1967) is a research scientist at the Slovak Academy of Science investigating meteoroid orbits, particularly the critical analysis of observational errors leading to apparently hyperbolic orbits.
NOTE: some special characters may not display properly (any characters within {} are an attempt to place the proper accent above a character)
Reference: MPC batch dated 2017-03-12Last Updated: 2017-04-19
Ephemeris | Orbit Diagram | Orbital Elements | Mission Design | Physical Parameters | Discovery Circumstances ]
ABOUT SSD CREDITS/AWARDS PRIVACY/COPYRIGHT GLOSSARY LINKS
FirstGov 2020-Apr-04 06:49 UT
(server date/time)  
NASA Home Page
Site Manager:   Ryan S. Park
Webmaster  Alan B. Chamberlin